{"data":{"norad_id":64948,"intl_designator":"2025-158S","name":"STARLINK-34630","alt_names":[],"object_type":"PAYLOAD","status":"ACTIVE","operator":null,"country":"US","launch_date":"2025-07-27","launch_site_code":"AFWTR","launch_vehicle":null,"mission":null,"orbit_class":"UNKNOWN","rcs_meters":null,"size_class":null,"mass_kg":null,"dimensions":null,"purposes":["comms"],"wikipedia_slug":null,"has_3d_model":false,"image_url":null,"decayed_at":null,"tle_current":{"epoch":"2026-05-25T03:21:08.683776Z","epoch_age_seconds":56847,"freshness":"FRESH","line1":"1 64948U 25158S   26145.13968384  .00003673  00000+0  25845-3 0  9997","line2":"2 64948  97.4505   9.1302 0002762  86.9039 273.2504 15.05656513 46864","mean_motion":15.05656513,"eccentricity":0.0002762,"inclination_deg":97.4505,"raan_deg":9.1302,"arg_perigee_deg":86.9039,"mean_anomaly_deg":273.2504,"bstar":0.00025845,"rev_number":4686,"period_min":95.639343207889,"perigee_km":547.57776522709,"apogee_km":551.40458703158,"semimajor_km":6927.6281761293,"source":"CELESTRAK","updated_at":"2026-05-25T13:38:20.633880Z"}}}